loading
|
Showing default

COSMOS 2553, 51511

Orbit data source: Space-Track

COSMOS 2553, 51511 is a payload satellite owned by VVKO VKS (CIS) in LEO that was launched on Sat, 05 Feb 2022 UTC via a SOYUZ-2-1A launch vehicle from the Plesetsk Missile And Space Complex (PKMTR). Payloads include a variety of satellites, spacecraft, and rockets equipped with specific instruments for various scientific and technological missions. These include communications satellites like Starlink; space stations such as the ISS; scientific satellites like the Hubble; Earth observation satellites from companies like Planet Labs, Umbra, and HawkEye 360; GPS; miniature CubeSats for education and research; and military/defense satellites.

Loading next visibility...
Loading greatness...
COSMOS 2553 details
Identifier
51511, 2022-011A
Orbit
LEO
Last TLE update6 hours ago
Origin
Flag of CISVVKO VKS (CIS)
ManufacturerResehetnev ISS
Mission statusOperational
MissionDefense Radar Imaging
Bus & MotorMERIDIAN, Unknown motor
Mass~2,000 kg wet, ~2,000 kg dry
Launch date (UTC)
2022-02-05 (3 years ago)
Launch vehicle
SOYUZ-2-1A
Launch site
Plesetsk Missile And Space Complex (PKMTR)
Object type
Payload
Rocket body
Debris
Radar Cross SectionLarge (>1 m²)

Expand to show TLE details & history

TLE from 6 hours ago
0 COSMOS 2553
1 51511U 22011A   24251.75549023 -.00000040  00000-0 -13104-3 0  9996
2 51511  67.0887 255.4199 0003905 263.0648  96.9851 11.32873888107108
Epoch: 2024-09-07T18:07Z
Definitive object data (Epoch: 2024-09-07T18:07:54.355Z)
Latitude-0°
Longitude-3.8657°
Altitude1,998.372 km
Speed6.899 km/s
True Right ascension17h 01m 40s
True Declination0° 00' 00"
Sunlit
Object was in daylight at TLE epoch
Predictive object data (real-time)
Latitude-60.90306°
Longitude-53.34264°
Altitude2,015.858 km
Speed6.894 km/s
Apparent Right ascension07h 59m 24s
Apparent Declination-75° 16' 59"
Sunlit
Object is in daylight
Predictive observer data (real-time)
Local Sidereal Time16:13:48
Azimuth197.99° SSW
Elevation-46.755°
Doppler factor1
Orbital elements
Apogee1,997.984 km
Perigee1,991.444 km
Semi-major axis8,372.851 km
Eccentricity0.0003905
Inclination67.0887°
RAAN255.4199°
Arg. of periapsis263.0648°
True anomaly97.02951°
Mean anomaly96.9851°
Eccentric anomaly97.00731°
Mean motion2.83291 °/min
BSTAR-0.00013104
Period127.08 mins
No data available
Other satellites on launch #11 in the year 2022 (2022-02-05 UTC)

COSMOS 2553 Visibility forecast

Observer location: 39.9160978°, -105.1181434

COSMOS 2553 is not visible in the next 10 days
Span
Click to sort rows by Start time (UTC) header in descending order
Start Az.
Max El. time (UTC)
Max El. Az.
Max El.
End time (UTC)
End Az.